Weather History for North Padre Island, TX

Change the Weather History Date:

Tuesday, February 19, 2013

  Actual Average Record
Temperature  
Mean Temperature 66 °F -  
Max Temperature 68 °F - - ()
Min Temperature 64 °F - - ()
Cooling Degree Days 1    
Growing Degree Days 16 (Base 50)    
Moisture  
Dew Point 60 °F    
Average Humidity 80    
Maximum Humidity 94    
Minimum Humidity 68    
Precipitation  
Precipitation 0.00 in - - ()
Sea Level Pressure  
Sea Level Pressure 30.08 in    
Wind  
Wind Speed 15 mph (ENE)    
Max Wind Speed 28 mph    
Max Gust Speed 29 mph    
Visibility 7 miles    
Events      
T = Trace of Precipitation, MM = Missing Value Source: NWS Daily Summary

Daily Weather History Graph

Daily Weather History Graph

Search for Another Location

Airport:

Trip Planner

Search our weather history database for the weather conditions in past years. The results will help you decide how hot, cold, wet, or windy it might be!

Date:

Astronomy

Feb. 19, 2013 Rise Set
Actual Time 7:00 AM CST 6:22 PM CST
Civil Twilight 6:36 AM CST 6:46 PM CST
Nautical Twilight 6:09 AM CST 7:13 PM CST
Astronomical Twilight 5:42 AM CST 7:40 PM CST
Moon 1:11 PM CST (2/19) 2:17 AM CST (2/19)
Length of Visible Light 12h 09m
Length of Day
11h 22m
Waxing Gibbous, 67% of the Moon is Illuminated
Feb 19
Waxing Gibbous
Feb 25
Full
Mar 4
Last Quarter
Mar 11
New
Mar 19
First Quarter

Hourly Weather History & Observations

Time (CST) Temp. Dew Point Humidity Pressure Visibility Wind Dir Wind Speed Gust Speed Precip Events Conditions
12:15 AM 66.2 °F 64.4 °F 94% 30.00 in 6.0 mi South 10.4 mph - N/A   Clear
12:35 AM 66.2 °F 64.4 °F 94% 30.00 in 6.0 mi South 10.4 mph - N/A   Clear
12:55 AM 66.2 °F 62.6 °F 88% 30.01 in 6.0 mi SSW 6.9 mph - N/A   Clear
1:15 AM 66.2 °F 62.6 °F 88% 30.00 in 6.0 mi SSW 9.2 mph - N/A   Clear
1:35 AM 66.2 °F 62.6 °F 88% 30.00 in 5.0 mi South 8.1 mph - N/A   Clear
1:55 AM 66.2 °F 64.4 °F 94% 30.01 in 6.0 mi South 8.1 mph - N/A   Clear
2:15 AM 66.2 °F 64.4 °F 94% 30.01 in 6.0 mi South 6.9 mph - N/A   Clear
2:35 AM 66.2 °F 64.4 °F 94% 30.01 in 6.0 mi South 6.9 mph - N/A   Clear
2:55 AM 66.2 °F 64.4 °F 94% 30.01 in 5.0 mi South 8.1 mph - N/A   Clear
3:35 AM 66.2 °F 64.4 °F 94% 30.02 in 6.0 mi South 6.9 mph - N/A   Clear
3:55 AM 66.2 °F 64.4 °F 94% 30.03 in 6.0 mi South 5.8 mph - N/A   Clear
4:15 AM 66.2 °F 64.4 °F 94% 30.03 in 6.0 mi South 5.8 mph - N/A   Clear
4:35 AM 66.2 °F 64.4 °F 94% 30.03 in 5.0 mi SSE 5.8 mph - N/A   Clear
4:55 AM 66.2 °F 64.4 °F 94% 30.04 in 5.0 mi SSE 5.8 mph - N/A   Clear
5:15 AM 66.2 °F 64.4 °F 94% 30.05 in 5.0 mi SSE 3.5 mph - N/A   Clear
5:35 AM 64.4 °F 62.6 °F 94% 30.06 in 5.0 mi NNW 10.4 mph - N/A   Partly Cloudy
5:55 AM 66.2 °F 64.4 °F 94% 30.07 in 6.0 mi North 5.8 mph - N/A   Mostly Cloudy
6:15 AM 64.4 °F 60.8 °F 88% 30.08 in 6.0 mi North 10.4 mph - N/A   Overcast
6:55 AM 64.4 °F 59.0 °F 83% 30.09 in 7.0 mi NNE 10.4 mph 17.3 mph N/A   Overcast
7:15 AM 64.4 °F 57.2 °F 77% 30.10 in 7.0 mi NNE 13.8 mph 19.6 mph N/A   Overcast
7:35 AM 64.4 °F 59.0 °F 83% 30.11 in 8.0 mi NNE 13.8 mph 21.9 mph N/A   Overcast
7:55 AM 66.2 °F 57.2 °F 73% 30.11 in 8.0 mi NNE 18.4 mph 26.5 mph N/A   Overcast
8:15 AM 66.2 °F 57.2 °F 73% 30.13 in 8.0 mi NNE 20.7 mph 27.6 mph N/A   Overcast
8:55 AM 66.2 °F 57.2 °F 73% 30.14 in 8.0 mi NE 25.3 mph - N/A   Mostly Cloudy
9:15 AM 66.2 °F 57.2 °F 73% 30.15 in 8.0 mi NE 26.5 mph - N/A   Mostly Cloudy
9:35 AM 66.2 °F 57.2 °F 73% 30.15 in 8.0 mi NE 27.6 mph - N/A   Mostly Cloudy
9:55 AM 66.2 °F 57.2 °F 73% 30.15 in 7.0 mi NE 27.6 mph - N/A   Scattered Clouds
10:15 AM 66.2 °F 57.2 °F 73% 30.16 in 9.0 mi NE 27.6 mph - N/A   Clear
10:35 AM 66.2 °F 57.2 °F 73% 30.16 in 8.0 mi NE 26.5 mph - N/A   Partly Cloudy
10:55 AM 66.2 °F 57.2 °F 73% 30.17 in 7.0 mi NE 27.6 mph - N/A   Partly Cloudy
11:15 AM 66.2 °F 57.2 °F 73% 30.18 in 8.0 mi NE 21.9 mph 28.8 mph N/A   Partly Cloudy
11:35 AM 66.2 °F 57.2 °F 73% 30.17 in 7.0 mi NE 20.7 mph - N/A   Partly Cloudy
12:15 PM 66.2 °F 57.2 °F 73% 30.16 in 7.0 mi NE 24.2 mph - N/A   Clear
12:35 PM 68.0 °F 57.2 °F 68% 30.15 in 7.0 mi NE 21.9 mph - N/A   Clear
12:55 PM 66.2 °F 59.0 °F 78% 30.14 in 8.0 mi NE 21.9 mph 27.6 mph N/A   Clear
1:15 PM 66.2 °F 57.2 °F 73% 30.14 in 7.0 mi NE 23.0 mph - N/A   Clear
1:35 PM 66.2 °F 59.0 °F 78% 30.13 in 7.0 mi NE 21.9 mph - N/A   Clear
1:55 PM 66.2 °F 57.2 °F 73% 30.12 in 7.0 mi NE 23.0 mph - N/A   Clear
2:15 PM 66.2 °F 57.2 °F 73% 30.11 in 7.0 mi NE 21.9 mph - N/A   Clear
2:35 PM 66.2 °F 57.2 °F 73% 30.11 in 8.0 mi NE 21.9 mph - N/A   Clear
2:55 PM 66.2 °F 59.0 °F 78% 30.10 in 7.0 mi NE 20.7 mph - N/A   Partly Cloudy
3:15 PM 66.2 °F 59.0 °F 78% 30.09 in 8.0 mi NE 21.9 mph - N/A   Scattered Clouds
3:35 PM 68.0 °F 59.0 °F 73% 30.09 in 8.0 mi NE 20.7 mph - N/A   Clear
3:55 PM 68.0 °F 59.0 °F 73% 30.08 in 7.0 mi NE 20.7 mph 27.6 mph N/A   Clear
4:15 PM 68.0 °F 59.0 °F 73% 30.07 in 7.0 mi NE 21.9 mph - N/A   Clear
4:35 PM 66.2 °F 59.0 °F 78% 30.07 in 7.0 mi NE 21.9 mph - N/A   Clear
4:55 PM 66.2 °F 59.0 °F 78% 30.07 in 7.0 mi ENE 21.9 mph - N/A   Clear
5:15 PM 68.0 °F 59.0 °F 73% 30.07 in 7.0 mi ENE 23.0 mph - N/A   Clear
6:55 PM 66.2 °F 59.0 °F 78% 30.05 in 9.0 mi NE 23.0 mph - N/A   Mostly Cloudy
7:15 PM 66.2 °F 59.0 °F 78% 30.06 in 9.0 mi ENE 24.2 mph - N/A   Mostly Cloudy
7:35 PM 68.0 °F 59.0 °F 73% 30.07 in 9.0 mi ENE 24.2 mph - N/A   Mostly Cloudy
8:15 PM 68.0 °F 59.0 °F 73% 30.07 in 9.0 mi ENE 21.9 mph - N/A   Clear
8:35 PM 68.0 °F 59.0 °F 73% 30.06 in 9.0 mi ENE 25.3 mph - N/A   Clear
8:55 PM 68.0 °F 57.2 °F 68% 30.06 in 10.0 mi ENE 27.6 mph - N/A   Clear
9:15 PM 68.0 °F 59.0 °F 73% 30.06 in 9.0 mi ENE 25.3 mph - N/A   Clear
9:35 PM 68.0 °F 59.0 °F 73% 30.07 in 8.0 mi ENE 21.9 mph - N/A   Clear
9:55 PM 68.0 °F 59.0 °F 73% 30.07 in 9.0 mi ENE 23.0 mph - N/A   Clear
10:15 PM 68.0 °F 59.0 °F 73% 30.08 in 8.0 mi ENE 20.7 mph - N/A   Clear
10:35 PM 68.0 °F 59.0 °F 73% 30.06 in 9.0 mi ENE 24.2 mph - N/A   Clear
10:55 PM 68.0 °F 59.0 °F 73% 30.06 in 8.0 mi East 25.3 mph - N/A   Clear
11:15 PM 68.0 °F 59.0 °F 73% 30.05 in 8.0 mi East 24.2 mph - N/A   Clear
11:35 PM 68.0 °F 60.8 °F 78% 30.03 in 8.0 mi East 25.3 mph - N/A   Clear
11:55 PM 68.0 °F 60.8 °F 78% 30.03 in 8.0 mi East 24.2 mph - N/A   Partly Cloudy